User: anonymous   Login
Location: Unspecified
(0.0000°N, 0.0000°E)
Time: 04:56:12
(UTC+00:00)
Language:

Kosmos-1745 - Orbit

View from above orbital plane
View from above orbital plane
View from above satellite
View from above satellite

Ground track
Ground track

The orbit data is extracted from the following two-line orbital elements,

1 16727U 86037A   18019.54458285  .00000025  00000-0  96614-5 0  9995
2 16727  82.9561 212.2869 0032340 120.9882 266.0171 13.74181486587688
Epoch (UTC): 19 January 2018 13:04:11
Eccentricity: 0.0032340
inclination: 82.9561°
perigee height: 961 km
apogee height: 1008 km
right ascension of ascending node: 212.2869°
argument of perigee: 120.9882°
revolutions per day: 13.74181486
mean anomaly at epoch: 266.0171°
orbit number at epoch: 58768

The dashed part of the orbit path shows where the satellite is in the earth's shadow,  

DLR